GW0655 Weather Reports


time (UTC)temp
C
wind
direction
speed
KPH
gust
KPH
rain 1hr
cm
rain 24hr
cm
rain mn
cm
humidity
%
barometer
mb
20260903054616 28 253 1.6 3.2 0.00 0.00 0.00 72 1015.2
20260903054112 28 198 4.8 8.0 0.00 0.00 0.00 72 1015.2
20260903053608 28 274 0.0 1.6 0.00 0.00 0.00 72 1015.2
20260903053104 28 158 1.6 1.6 0.00 0.00 0.00 73 1015.2
20260903052559 28 73 3.2 3.2 0.00 0.00 0.00 73 1015.2
20260903052054 28 216 4.8 4.8 0.00 0.00 0.00 73 1015.2
20260903051549 28 235 1.6 3.2 0.00 0.00 0.00 73 1015.2
20260903051045 28 224 1.6 3.2 0.00 0.00 0.00 73 1015.2
20260903050544 28 218 1.6 3.2 0.00 0.00 0.00 73 1015.2
20260903050039 28 229 1.6 3.2 0.00 0.00 0.00 73 1015.2
20260903045538 28 258 3.2 4.8 0.00 0.00 0.00 73 1015.2
20260903045036 28 275 3.2 4.8 0.00 0.00 0.00 73 1015.2
20260903044531 28 230 4.8 4.8 0.00 0.00 0.00 72 1015.5
20260903044026 28 116 6.4 9.7 0.00 0.00 0.00 72 1015.2
20260903043522 28 152 8.0 11.3 0.00 0.00 0.00 72 1015.2
20260903043021 28 137 9.7 12.9 0.00 0.00 0.00 70 1015.2
20260903042516 28 79 8.0 12.9 0.00 0.00 0.00 69 1014.8
20260903042012 28 151 6.4 8.0 0.00 0.00 0.00 69 1014.8
20260903041509 29 164 4.8 4.8 0.00 0.00 0.00 68 1014.8
20260903041003 28 101 4.8 11.3 0.00 0.00 0.00 69 1014.8
20260903040502 28 167 4.8 4.8 0.00 0.00 0.00 70 1014.8
20260903035959 28 188 3.2 8.0 0.00 0.00 0.00 70 1014.5
20260903035454 28 129 9.7 14.5 0.00 0.00 0.00 71 1014.5
20260903034949 28 156 4.8 4.8 0.00 0.00 0.00 71 1014.5
20260903034444 28 119 6.4 11.3 0.00 0.00 0.00 71 1014.5
20260903033944 28 100 4.8 4.8 0.00 0.00 0.00 71 1014.5
20260903033439 29 140 9.7 12.9 0.00 0.00 0.00 70 1014.5
20260903032934 29 127 8.0 11.3 0.00 0.00 0.00 69 1014.8
20260903032430 29 96 14.5 22.5 0.00 0.00 0.00 68 1014.5
20260903031925 29 80 8.0 11.3 0.00 0.00 0.00 67 1014.5
20260903031425 30 185 3.2 4.8 0.00 0.00 0.00 66 1014.8
20260903030920 30 156 8.0 12.9 0.00 0.00 0.00 65 1014.5
20260903030416 30 142 14.5 17.7 0.00 0.00 0.00 62 1014.5
20260903025912 31 38 11.3 16.1 0.00 0.00 0.00 58 1014.5
20260903025407 31 62 0.0 1.6 0.00 0.00 0.00 58 1014.1
20260903024902 31 197 1.6 3.2 0.00 0.00 0.00 57 1014.1
20260903024356 31 205 3.2 3.2 0.00 0.00 0.00 58 1013.8
20260903023851 31 140 1.6 1.6 0.00 0.00 0.00 58 1013.8
20260903023347 31 87 0.0 1.6 0.00 0.00 0.00 57 1013.5
20260903022842 31 206 3.2 4.8 0.00 0.00 0.00 57 1013.5
20260903022341 31 296 3.2 3.2 0.00 0.00 0.00 57 1013.5
20260903021840 31 116 4.8 8.0 0.00 0.00 0.00 57 1013.1
20260903021336 31 66 3.2 3.2 0.00 0.00 0.00 58 1013.1
20260903020835 31 116 3.2 4.8 0.00 0.00 0.00 58 1012.7
20260903020331 31 189 1.6 3.2 0.00 0.00 0.00 60 1012.7
20260903015825 31 199 1.6 1.6 0.00 0.00 0.00 60 1013.1
20260903015320 30 293 0.0 1.6 0.00 0.00 0.00 61 1012.4
20260903014815 31 85 0.0 0.0 0.00 0.00 0.00 60 1012.7
20260903014310 31 46 0.0 0.0 0.00 0.00 0.00 61 1012.7
20260903013805 31 77 1.6 1.6 0.00 0.00 0.00 61 1012.4
20260903013304 31 41 0.0 0.0 0.00 0.00 0.00 61 1012.4
20260903012803 31 141 0.0 1.6 0.00 0.00 0.00 60 1012.4
20260903012258 31 109 3.2 4.8 0.00 0.00 0.00 58 1012.4
20260903011757 31 70 0.0 0.0 0.00 0.00 0.00 57 1012.7
20260903011256 31 58 1.6 1.6 0.00 0.00 0.00 56 1012.4
20260903010752 32 346 6.4 8.0 0.00 0.00 0.00 56 1012.4
20260903010248 32 331 1.6 1.6 0.00 0.00 0.00 56 1012.4
20260903005746 32 40 1.6 1.6 0.00 0.00 0.00 55 1012.4
20260903005241 32 296 0.0 0.0 0.00 0.00 0.00 55 1012.4
20260903004737 32 65 0.0 0.0 0.00 0.00 0.00 55 1012.4
20260903004232 32 43 0.0 1.6 0.00 0.00 0.00 54 1012.4
20260903003727 32 340 3.2 3.2 0.00 0.00 0.00 54 1012.4
20260903003223 32 37 0.0 1.6 0.00 0.00 0.00 53 1012.7
20260903002717 33 53 6.4 8.0 0.00 0.00 0.00 52 1012.4
20260903002211 33 16 8.0 9.7 0.00 0.00 0.00 52 1012.4
20260903001707 33 3 8.0 9.7 0.00 0.00 0.00 51 1012.4
20260903001200 33 7 9.7 12.9 0.00 0.00 0.00 51 1012.4
20260903000656 34 348 11.3 12.9 0.00 0.00 0.00 49 1012.7
20260903000150 35 57 3.2 3.2 0.00 0.00 0.00 46 1012.7
20260902235648 37 55 0.0 1.6 0.00 0.00 0.00 40 1012.4
20260902235144 37 228 1.6 1.6 0.00 0.00 0.00 38 1012.0
20260902234638 37 243 1.6 3.2 0.00 0.00 0.00 38 1012.4
20260902234137 38 280 3.2 3.2 0.00 0.00 0.00 37 1012.4
20260902233632 38 238 4.8 4.8 0.00 0.00 0.00 38 1012.0
20260902233126 38 265 0.0 0.0 0.00 0.00 0.00 38 1012.4
20260902232626 38 270 1.6 3.2 0.00 0.00 0.00 38 1012.0
20260902232125 38 202 4.8 4.8 0.00 0.00 0.00 38 1012.4
20260902231624 38 183 1.6 3.2 0.00 0.00 0.00 36 1012.4
20260902231124 38 281 3.2 3.2 0.00 0.00 0.00 37 1012.0
20260902230620 38 210 3.2 4.8 0.00 0.00 0.00 36 1012.0
20260902230118 38 140 3.2 3.2 0.00 0.00 0.00 37 1012.0
20260902225614 38 259 6.4 8.0 0.00 0.00 0.00 36 1012.0
20260902225113 38 246 3.2 3.2 0.00 0.00 0.00 37 1012.0
20260902224612 38 249 3.2 3.2 0.00 0.00 0.00 37 1012.7
20260902224108 38 279 0.0 1.6 0.00 0.00 0.00 38 1012.0
20260902223604 38 208 1.6 3.2 0.00 0.00 0.00 37 1012.0
20260902223103 38 291 3.2 3.2 0.00 0.00 0.00 36 1012.0
20260902222602 39 288 1.6 1.6 0.00 0.00 0.00 35 1012.0
20260902222101 40 200 3.2 3.2 0.00 0.00 0.00 34 1012.0
20260902221555 40 278 1.6 4.8 0.00 0.00 0.00 34 1012.0
20260902221050 38 265 0.0 0.0 0.00 0.00 0.00 36 1012.4
20260902220546 38 199 6.4 9.7 0.00 0.00 0.00 35 1012.4
20260902220040 38 287 3.2 3.2 0.00 0.00 0.00 36 1012.4
20260902215536 38 234 6.4 8.0 0.00 0.00 0.00 37 1012.4
20260902215031 38 251 3.2 4.8 0.00 0.00 0.00 37 1012.4
20260902214526 39 202 3.2 3.2 0.00 0.00 0.00 37 1012.4
20260902214025 40 185 1.6 3.2 0.00 0.00 0.00 36 1012.4
20260902213521 39 231 4.8 4.8 0.00 0.00 0.00 37 1012.4
20260902213020 38 244 4.8 8.0 0.00 0.00 0.00 38 1012.7
20260902212516 38 194 6.4 12.9 0.00 0.00 0.00 39 1012.7
20260902212012 37 241 8.0 11.3 0.00 0.00 0.00 40 1012.7
20260902211508 38 210 3.2 3.2 0.00 0.00 0.00 39 1012.7
20260902211002 39 214 4.8 12.9 0.00 0.00 0.00 38 1012.7
20260902210456 39 226 4.8 4.8 0.00 0.00 0.00 37 1012.7
20260902205955 40 40 4.8 4.8 0.00 0.00 0.00 36 1012.7
20260902205450 40 206 0.0 1.6 0.00 0.00 0.00 34 1012.7
20260902204946 39 255 1.6 1.6 0.00 0.00 0.00 36 1012.7
20260902204445 38 248 0.0 1.6 0.00 0.00 0.00 37 1013.1
20260902203941 38 316 1.6 1.6 0.00 0.00 0.00 37 1013.5
20260902203436 39 222 3.2 3.2 0.00 0.00 0.00 36 1013.1
20260902202935 40 248 6.4 11.3 0.00 0.00 0.00 36 1013.5
20260902202431 39 222 1.6 1.6 0.00 0.00 0.00 37 1013.5
20260902201927 40 245 1.6 3.2 0.00 0.00 0.00 36 1013.5
20260902201422 38 293 1.6 1.6 0.00 0.00 0.00 38 1013.5
20260902200917 38 222 1.6 3.2 0.00 0.00 0.00 38 1013.5
20260902200412 39 215 0.0 1.6 0.00 0.00 0.00 37 1013.8
20260902195907 39 265 0.0 0.0 0.00 0.00 0.00 37 1013.8
20260902195402 38 214 4.8 8.0 0.00 0.00 0.00 37 1013.8
20260902194856 40 307 0.0 0.0 0.00 0.00 0.00 37 1014.1
20260902194357 40 283 1.6 3.2 0.00 0.00 0.00 37 1014.1
20260902193851 40 300 1.6 3.2 0.00 0.00 0.00 36 1014.1
20260902193348 39 259 0.0 0.0 0.00 0.00 0.00 36 1014.1
20260902192846 37 248 3.2 3.2 0.00 0.00 0.00 39 1014.5
20260902192345 37 167 4.8 4.8 0.00 0.00 0.00 39 1014.1
20260902191839 38 191 4.8 4.8 0.00 0.00 0.00 38 1014.5
20260902191335 39 192 6.4 11.3 0.00 0.00 0.00 37 1014.5
20260902190830 38 256 1.6 1.6 0.00 0.00 0.00 38 1014.5
20260902190329 40 175 3.2 4.8 0.00 0.00 0.00 37 1014.8
20260902185826 38 297 1.6 1.6 0.00 0.00 0.00 38 1014.8
20260902185321 40 238 6.4 8.0 0.00 0.00 0.00 36 1014.8
20260902184816 39 238 3.2 3.2 0.00 0.00 0.00 37 1014.8
20260902184312 38 78 4.8 9.7 0.00 0.00 0.00 39 1014.8
20260902183807 38 186 6.4 9.7 0.00 0.00 0.00 39 1015.2
20260902183303 38 193 1.6 1.6 0.00 0.00 0.00 39 1015.2
20260902182759 38 284 1.6 3.2 0.00 0.00 0.00 39 1015.5
20260902182255 37 177 4.8 4.8 0.00 0.00 0.00 40 1015.5
20260902181751 38 226 1.6 3.2 0.00 0.00 0.00 39 1015.5
20260902181246 37 198 3.2 3.2 0.00 0.00 0.00 40 1015.5
20260902180740 38 301 4.8 4.8 0.00 0.00 0.00 40 1015.5
20260902180236 37 224 1.6 3.2 0.00 0.00 0.00 40 1016.2
20260902175731 37 209 9.7 11.3 0.00 0.00 0.00 40 1015.8
20260902175227 37 187 4.8 4.8 0.00 0.00 0.00 41 1016.2
20260902174723 37 192 4.8 8.0 0.00 0.00 0.00 42 1016.2
20260902174218 37 221 4.8 8.0 0.00 0.00 0.00 42 1016.2
20260902173714 37 214 6.4 8.0 0.00 0.00 0.00 42 1016.2
20260902173208 36 195 1.6 3.2 0.00 0.00 0.00 44 1016.5
20260902172703 37 183 8.0 9.7 0.00 0.00 0.00 43 1016.5
20260902172202 36 160 1.6 3.2 0.00 0.00 0.00 44 1016.5
20260902171657 36 272 3.2 4.8 0.00 0.00 0.00 44 1016.5
20260902171153 37 261 1.6 1.6 0.00 0.00 0.00 43 1016.9
20260902170649 37 299 1.6 1.6 0.00 0.00 0.00 44 1016.9
20260902170144 36 181 1.6 1.6 0.00 0.00 0.00 45 1017.2
20260902165638 36 261 1.6 3.2 0.00 0.00 0.00 45 1016.9
20260902165133 36 275 1.6 1.6 0.00 0.00 0.00 46 1016.9
20260902164628 35 256 0.0 1.6 0.00 0.00 0.00 48 1017.2
20260902164127 35 161 6.4 9.7 0.00 0.00 0.00 48 1017.2
20260902163622 35 212 3.2 4.8 0.00 0.00 0.00 49 1017.2
20260902163121 35 204 3.2 4.8 0.00 0.00 0.00 50 1017.2
20260902162620 35 222 4.8 4.8 0.00 0.00 0.00 50 1017.2
20260902162115 34 260 1.6 3.2 0.00 0.00 0.00 51 1017.2
20260902161610 34 190 4.8 8.0 0.00 0.00 0.00 51 1017.2
20260902161106 34 188 4.8 8.0 0.00 0.00 0.00 51 1017.2
20260902160602 35 148 1.6 3.2 0.00 0.00 0.00 50 1017.2
20260902160057 34 262 1.6 3.2 0.00 0.00 0.00 50 1016.9
20260902155549 33 206 4.8 4.8 0.00 0.00 0.00 53 1017.2
20260902155048 33 176 4.8 8.0 0.00 0.00 0.00 53 1017.2
20260902154544 33 139 4.8 4.8 0.00 0.00 0.00 54 1017.2
20260902154039 33 197 9.7 11.3 0.00 0.00 0.00 52 1017.2
20260902153537 33 260 1.6 1.6 0.00 0.00 0.00 53 1017.2
20260902153033 33 190 4.8 4.8 0.00 0.00 0.00 54 1017.2
20260902152529 33 132 3.2 3.2 0.00 0.00 0.00 56 1017.2
20260902152025 32 255 1.6 1.6 0.00 0.00 0.00 57 1017.2
20260902151520 32 269 0.0 1.6 0.00 0.00 0.00 57 1017.2
20260902151019 32 274 3.2 4.8 0.00 0.00 0.00 58 1017.2
20260902150515 31 317 3.2 4.8 0.00 0.00 0.00 60 1017.2
20260902150010 32 258 3.2 3.2 0.00 0.00 0.00 59 1017.2
20260902145505 31 289 0.0 1.6 0.00 0.00 0.00 61 1017.2
20260902144959 31 246 3.2 3.2 0.00 0.00 0.00 63 1017.2
20260902144456 30 196 1.6 3.2 0.00 0.00 0.00 66 1017.2
20260902143950 30 201 9.7 12.9 0.00 0.00 0.00 65 1017.2
20260902143445 30 222 4.8 4.8 0.00 0.00 0.00 65 1017.5
20260902142940 30 202 4.8 8.0 0.00 0.00 0.00 66 1017.2
20260902142436 30 234 4.8 8.0 0.00 0.00 0.00 66 1017.2
20260902141932 31 287 3.2 3.2 0.00 0.00 0.00 65 1017.5
20260902141427 30 242 6.4 9.7 0.00 0.00 0.00 67 1017.2
20260902140926 30 193 6.4 11.3 0.00 0.00 0.00 67 1017.5
20260902140422 30 256 0.0 0.0 0.00 0.00 0.00 68 1017.2
20260902135921 30 237 3.2 4.8 0.00 0.00 0.00 69 1017.2
20260902135418 29 242 0.0 1.6 0.00 0.00 0.00 69 1017.2
20260902134916 28 254 1.6 1.6 0.00 0.00 0.00 70 1017.2
20260902134412 28 262 0.0 0.0 0.00 0.00 0.00 72 1017.2
20260902133913 28 265 1.6 1.6 0.00 0.00 0.00 72 1017.2
20260902133407 27 206 3.2 3.2 0.00 0.00 0.00 73 1017.5
20260902132902 27 250 3.2 3.2 0.00 0.00 0.00 75 1017.2
20260902132357 27 223 1.6 1.6 0.00 0.00 0.00 76 1017.2
20260902131852 27 217 3.2 4.8 0.00 0.00 0.00 76 1017.2
20260902131349 26 232 1.6 1.6 0.00 0.00 0.00 78 1017.2
20260902130848 26 227 3.2 3.2 0.00 0.00 0.00 79 1017.2
20260902130344 26 236 0.0 0.0 0.00 0.00 0.00 81 1016.9
20260902125839 26 264 0.0 1.6 0.00 0.00 0.00 81 1016.9
20260902125335 25 200 3.2 4.8 0.00 0.00 0.00 82 1016.9
20260902124831 25 250 1.6 1.6 0.00 0.00 0.00 82 1016.9
20260902124326 25 204 0.0 0.0 0.00 0.00 0.00 83 1016.9
20260902123821 25 206 1.6 3.2 0.00 0.00 0.00 84 1016.9
20260902123318 25 248 0.0 0.0 0.00 0.00 0.00 85 1016.9
20260902122816 25 242 0.0 0.0 0.00 0.00 0.00 85 1016.5
20260902122313 25 241 0.0 0.0 0.00 0.00 0.00 85 1016.9
20260902121812 25 242 0.0 0.0 0.00 0.00 0.00 85 1016.5
20260902121307 25 229 0.0 0.0 0.00 0.00 0.00 85 1016.5
20260902120803 25 213 1.6 1.6 0.00 0.00 0.00 84 1016.5
20260902120259 25 235 0.0 0.0 0.00 0.00 0.00 83 1016.5
20260902115754 25 247 0.0 0.0 0.00 0.00 0.00 83 1016.5
20260902115250 25 246 0.0 0.0 0.00 0.00 0.00 84 1016.5
20260902114746 25 246 0.0 0.0 0.00 0.00 0.00 85 1016.2
20260902114242 25 247 0.0 1.6 0.00 0.00 0.00 85 1016.2
20260902113742 25 270 0.0 0.0 0.00 0.00 0.00 84 1016.2
20260902113237 25 246 0.0 0.0 0.00 0.00 0.00 84 1016.2
20260902112736 25 240 0.0 0.0 0.00 0.00 0.00 84 1016.2
20260902112234 25 246 0.0 1.6 0.00 0.00 0.00 83 1016.2
20260902111729 25 218 1.6 1.6 0.00 0.00 0.00 82 1016.2
20260902111225 25 249 0.0 0.0 0.00 0.00 0.00 82 1016.2
20260902110720 25 245 0.0 0.0 0.00 0.00 0.00 82 1016.2
20260902110216 25 200 1.6 1.6 0.00 0.00 0.00 82 1016.2
20260902105715 25 242 0.0 0.0 0.00 0.00 0.00 81 1015.8
20260902105211 25 207 3.2 3.2 0.00 0.00 0.00 81 1016.2
20260902104706 25 237 1.6 1.6 0.00 0.00 0.00 81 1016.2
20260902104203 26 217 0.0 1.6 0.00 0.00 0.00 81 1016.2
20260902103701 25 216 3.2 3.2 0.00 0.00 0.00 81 1016.2
20260902103156 25 246 0.0 0.0 0.00 0.00 0.00 82 1016.2
20260902102652 25 224 0.0 0.0 0.00 0.00 0.00 82 1016.2
20260902102150 25 226 0.0 1.6 0.00 0.00 0.00 82 1016.2
20260902101645 25 248 0.0 0.0 0.00 0.00 0.00 82 1016.2
20260902101144 26 249 0.0 0.0 0.00 0.00 0.00 81 1016.2
20260902100639 26 247 0.0 0.0 0.00 0.00 0.00 81 1016.2
20260902100134 26 243 0.0 0.0 0.00 0.00 0.00 81 1016.2
20260902095633 26 192 3.2 3.2 0.00 0.00 0.00 81 1016.2
20260902095132 26 237 0.0 1.6 0.00 0.00 0.00 81 1016.2
20260902094628 26 209 0.0 0.0 0.00 0.00 0.00 81 1016.2
20260902094124 26 247 0.0 0.0 0.00 0.00 0.00 80 1016.2
20260902093624 26 225 0.0 0.0 0.00 0.00 0.00 80 1016.2
20260902093119 26 223 3.2 3.2 0.00 0.00 0.00 79 1016.2
20260902092618 26 248 0.0 0.0 0.00 0.00 0.00 79 1016.2
20260902092114 26 222 1.6 1.6 0.00 0.00 0.00 79 1016.2
20260902091609 26 250 0.0 0.0 0.00 0.00 0.00 79 1016.2
20260902091105 26 242 0.0 0.0 0.00 0.00 0.00 79 1016.2
20260902090601 26 249 0.0 0.0 0.00 0.00 0.00 79 1016.2
20260902090059 26 248 0.0 0.0 0.00 0.00 0.00 79 1016.2
20260902085554 26 237 1.6 1.6 0.00 0.00 0.00 79 1016.2
20260902085049 26 229 1.6 1.6 0.00 0.00 0.00 80 1016.2
20260902084545 26 251 1.6 1.6 0.00 0.00 0.00 81 1016.5
20260902084040 26 245 0.0 0.0 0.00 0.00 0.00 80 1016.2
20260902083530 26 224 0.0 0.0 0.00 0.00 0.00 80 1016.5
20260902083024 26 225 0.0 0.0 0.00 0.00 0.00 79 1016.2
20260902082520 26 242 0.0 0.0 0.00 0.00 0.00 79 1016.2
20260902082017 26 231 0.0 0.0 0.00 0.00 0.00 79 1016.5
20260902081513 26 237 0.0 1.6 0.00 0.00 0.00 79 1016.5
20260902081013 26 236 0.0 0.0 0.00 0.00 0.00 79 1016.5
20260902080508 26 244 0.0 0.0 0.00 0.00 0.00 79 1016.2
20260902080004 26 231 0.0 0.0 0.00 0.00 0.00 79 1016.5
20260902075459 26 226 0.0 0.0 0.00 0.00 0.00 78 1016.5
20260902074954 26 232 0.0 1.6 0.00 0.00 0.00 78 1016.5
20260902074450 26 241 0.0 0.0 0.00 0.00 0.00 78 1016.5
20260902073950 26 250 0.0 0.0 0.00 0.00 0.00 78 1016.5
20260902073446 26 234 0.0 0.0 0.00 0.00 0.00 77 1016.5
20260902072942 26 225 1.6 1.6 0.00 0.00 0.00 77 1016.5
20260902072438 26 252 0.0 0.0 0.00 0.00 0.00 77 1016.5
20260902071934 26 219 0.0 0.0 0.00 0.00 0.00 77 1016.5
20260902071433 27 224 0.0 0.0 0.00 0.00 0.00 76 1016.5
20260902070930 27 204 0.0 1.6 0.00 0.00 0.00 76 1016.5
20260902070425 27 255 0.0 0.0 0.00 0.00 0.00 76 1016.9
20260902065924 27 258 0.0 0.0 0.00 0.00 0.00 76 1016.9
20260902065419 27 265 0.0 0.0 0.00 0.00 0.00 75 1016.5
20260902064914 27 247 0.0 0.0 0.00 0.00 0.00 75 1016.9
20260902064410 27 229 0.0 0.0 0.00 0.00 0.00 75 1016.9
20260902063906 27 241 0.0 0.0 0.00 0.00 0.00 75 1016.9
20260902063405 27 251 0.0 0.0 0.00 0.00 0.00 74 1016.9
20260902062901 27 200 0.0 1.6 0.00 0.00 0.00 74 1016.5
20260902062359 27 235 0.0 0.0 0.00 0.00 0.00 74 1016.5
20260902061859 27 247 0.0 0.0 0.00 0.00 0.00 73 1016.9
20260902061355 27 253 0.0 0.0 0.00 0.00 0.00 72 1016.9
20260902060851 28 259 0.0 0.0 0.00 0.00 0.00 72 1016.5
20260902060346 28 229 1.6 1.6 0.00 0.00 0.00 72 1016.9
20260902055842 28 248 0.0 0.0 0.00 0.00 0.00 71 1016.5
20260902055338 28 246 0.0 1.6 0.00 0.00 0.00 70 1016.5
20260902054833 28 251 0.0 1.6 0.00 0.00 0.00 70 1016.5